This is the latest recevied weather packets stored in our database for station/object WS2Z. If no packets are shown the sender has not sent any weather packets the latest 10 day(s).
| Time | Temp. | Humidity | Pressure | Rain* | Wind** | Luminosity | Snow |
|---|---|---|---|---|---|---|---|
| 1777836266 | 23.33° C | 85% | 1015.9 hPa | 0 mm | - | 155 W/m² | - |
| 1777835962 | 23.33° C | 85% | 1015.9 hPa | 0 mm | - | 165 W/m² | - |
| 1777835660 | 23.33° C | 85% | 1015.9 hPa | 0 mm | - | 158 W/m² | - |
| 1777835356 | 22.78° C | 86% | 1016.1 hPa | 0 mm | - | 160 W/m² | - |
| 1777835053 | 22.78° C | 86% | 1016 hPa | 0 mm | - | 122 W/m² | - |
| 1777834749 | 23.33° C | 86% | 1016.1 hPa | 0 mm | - | 105 W/m² | - |
| 1777834446 | 23.33° C | 85% | 1016.2 hPa | 0 mm | - | 143 W/m² | - |
| 1777834145 | 23.33° C | 87% | 1016.1 hPa | 0 mm | - | 216 W/m² | - |
| 1777833842 | 22.78° C | 86% | 1016.2 hPa | 0 mm | - | 185 W/m² | - |
| 1777833538 | 22.78° C | 87% | 1016 hPa | 0 mm | - | 163 W/m² | - |
| 1777833235 | 22.78° C | 87% | 1016.2 hPa | 0 mm | - | 103 W/m² | - |
| 1777832933 | 22.78° C | 87% | 1016.3 hPa | 0 mm | - | 105 W/m² | - |
| 1777832631 | 23.33° C | 88% | 1016.4 hPa | 0 mm | - | 115 W/m² | - |
| 1777832328 | 23.33° C | 88% | 1016.4 hPa | 0 mm | - | 106 W/m² | - |
| 1777832025 | 22.78° C | 88% | 1016.3 hPa | 0 mm | - | 154 W/m² | - |
| 1777831722 | 22.78° C | 88% | 1016.5 hPa | 0 mm | - | 159 W/m² | - |
| 1777831420 | 22.78° C | 89% | 1016.5 hPa | 0 mm | - | 180 W/m² | - |
| 1777831116 | 22.78° C | 88% | 1016.5 hPa | 0 mm | - | 205 W/m² | - |
| 1777830814 | 22.78° C | 88% | 1016.5 hPa | 0 mm | - | 138 W/m² | - |
| 1777830515 | 22.78° C | 88% | 1016.5 hPa | 0 mm | - | 136 W/m² | - |
| 1777830213 | 22.78° C | 87% | 1016.6 hPa | 0 mm | - | 188 W/m² | - |
| 1777829908 | 22.78° C | 87% | 1016.5 hPa | 0 mm | - | 177 W/m² | - |
| 1777829605 | 22.78° C | 88% | 1016.5 hPa | 0 mm | - | 159 W/m² | - |
| 1777829302 | 22.78° C | 89% | 1016.6 hPa | 0 mm | - | 309 W/m² | - |
| 1777829000 | 22.22° C | 90% | 1016.8 hPa | 0 mm | - | 249 W/m² | - |
* Rain latest hour (hover to see other rain measurements)
** Current wind speed in m/s (hover to see current wind gust speed)